DW7220 Weather Reports


Display with metric or nautical units.
time (UTC)temp
F
wind
direction
speed
MPH
gust
MPH
rain 1hr
in
rain 24hr
in
rain mn
in
humidity
%
barometer
mb
20240523180026 82 65 8.0 14.0 0.00 0.00 0.00 71 1015.5
20240523174527 82 36 5.0 13.0 0.00 0.00 0.00 70 1015.6
20240523173032 82 55 4.0 14.0 0.00 0.00 0.00 71 1015.7
20240523171524 82 75 4.0 15.0 0.00 0.00 0.00 70 1015.8
20240523170023 82 72 5.0 12.0 0.00 0.00 0.00 70 1016.0
20240523164531 82 65 5.0 11.0 0.00 0.00 0.00 70 1016.0
20240523163034 82 39 4.0 12.0 0.00 0.00 0.00 70 1016.1
20240523161520 82 91 5.0 12.0 0.00 0.00 0.00 71 1016.1
20240523160029 82 72 5.0 10.0 0.00 0.00 0.00 70 1016.1
20240523154523 82 50 5.0 8.0 0.00 0.00 0.00 69 1016.1
20240523153020 81 95 3.0 8.0 0.00 0.00 0.00 70 1016.1
20240523151517 81 26 4.0 11.0 0.00 0.00 0.00 70 1016.2
20240523150017 82 80 1.0 10.0 0.00 0.00 0.00 70 1016.2
20240523144515 81 34 3.0 9.0 0.00 0.00 0.00 71 1016.3
20240523143014 82 76 4.0 9.0 0.00 0.00 0.00 70 1016.3
20240523141512 81 97 3.0 8.0 0.00 0.00 0.00 72 1016.3
20240523140016 81 21 2.0 7.0 0.00 0.00 0.00 70 1016.3
20240523134511 81 98 3.0 6.0 0.00 0.00 0.00 70 1016.5
20240523133006 80 9 4.0 7.0 0.00 0.00 0.00 71 1016.3
20240523131505 81 66 1.0 5.0 0.00 0.00 0.00 72 1016.3
20240523130004 81 56 2.0 5.0 0.00 0.00 0.00 72 1016.5
20240523124600 80 68 1.0 5.0 0.00 0.00 0.00 73 1016.4
20240523123056 79 342 0.0 2.0 0.00 0.00 0.00 77 1016.5
20240523121553 78 276 0.0 0.0 0.00 0.00 0.00 81 1016.2
20240523120056 77 276 0.0 0.0 0.00 0.00 0.00 84 1016.0
20240523114549 75 274 0.0 0.0 0.00 0.00 0.00 87 1015.8
20240523113047 73 271 0.0 0.0 0.00 0.00 0.00 89 1015.8
20240523111547 72 295 0.0 0.0 0.00 0.00 0.00 91 1015.8
20240523110047 70 295 0.0 0.0 0.00 0.00 0.00 92 1015.6
20240523104545 70 295 0.0 0.0 0.00 0.00 0.00 92 1015.7
20240523103049 70 295 0.0 2.0 0.00 0.00 0.00 92 1015.6
20240523101543 70 296 0.0 2.0 0.00 0.00 0.00 92 1015.5
20240523100044 71 305 0.0 0.0 0.00 0.00 0.00 90 1015.3
20240523094539 71 307 0.0 0.0 0.00 0.00 0.00 90 1015.3
20240523093045 71 307 0.0 0.0 0.00 0.00 0.00 90 1015.1
20240523091536 72 307 0.0 1.0 0.00 0.00 0.00 89 1015.0
20240523090036 72 307 0.0 0.0 0.00 0.00 0.00 89 1015.1
20240523084552 72 316 0.0 1.0 0.00 0.00 0.00 88 1015.1
20240523083036 73 316 0.0 2.0 0.00 0.00 0.00 87 1015.3
20240523081529 73 25 0.0 0.0 0.00 0.00 0.00 86 1015.2
20240523080029 74 25 0.0 0.0 0.00 0.00 0.00 85 1015.3
20240523074530 74 25 0.0 1.0 0.00 0.00 0.00 82 1015.4
20240523073020 75 28 0.0 1.0 0.00 0.00 0.00 80 1015.5
20240523071519 76 58 0.0 2.0 0.00 0.00 0.00 80 1015.5
20240523070035 76 82 0.0 1.0 0.00 0.00 0.00 79 1015.7
20240523064516 76 97 0.0 3.0 0.00 0.00 0.00 79 1015.7
20240523063021 76 97 0.0 2.0 0.00 0.00 0.00 79 1016.0
20240523061514 77 60 1.0 6.0 0.00 0.00 0.00 79 1016.1
20240523060015 77 61 1.0 6.0 0.00 0.00 0.00 79 1016.0
20240523054511 77 70 0.0 4.0 0.00 0.00 0.00 79 1016.1
20240523053009 77 27 0.0 7.0 0.00 0.00 0.00 78 1016.3
20240523051607 77 51 2.0 8.0 0.00 0.00 0.00 79 1016.2
20240523050012 77 79 2.0 10.0 0.00 0.00 0.00 79 1016.2
20240523044513 78 77 4.0 10.0 0.00 0.00 0.00 78 1016.2
20240523043002 78 86 3.0 10.0 0.00 0.00 0.00 79 1016.2
20240523041504 78 70 4.0 9.0 0.00 0.00 0.00 79 1016.1
20240523040058 78 64 3.0 9.0 0.00 0.00 0.00 79 1015.9
20240523034557 78 62 4.0 12.0 0.00 0.00 0.00 80 1015.8
20240523033056 78 66 4.0 12.0 0.00 0.00 0.00 78 1015.6
20240523031556 78 58 4.0 11.0 0.00 0.00 0.00 78 1015.6
20240523030114 78 76 4.0 11.0 0.00 0.00 0.00 79 1015.6
20240523024554 78 58 4.0 9.0 0.00 0.00 0.00 78 1015.6
20240523023055 78 86 4.0 8.0 0.00 0.00 0.00 77 1015.3
20240523021553 78 91 2.0 8.0 0.00 0.00 0.00 78 1015.2
20240523020057 78 89 4.0 9.0 0.00 0.00 0.00 78 1015.1
20240523014551 78 26 2.0 8.0 0.00 0.00 0.00 79 1014.9
20240523013133 78 63 3.0 8.0 0.00 0.00 0.00 78 1014.8
20240523011551 78 67 1.0 8.0 0.00 0.00 0.00 78 1014.9
20240523010050 78 62 2.0 8.0 0.00 0.00 0.00 77 1014.8
20240523004549 78 82 5.0 9.0 0.00 0.00 0.00 77 1014.5
20240523003048 78 38 3.0 7.0 0.00 0.00 0.00 78 1014.3
20240523001608 78 42 5.0 9.0 0.00 0.00 0.00 81 1014.3
20240523000052 79 29 4.0 12.0 0.00 0.00 0.00 79 1014.1
20240522234546 79 61 8.0 12.0 0.00 0.00 0.00 77 1014.2
20240522233045 80 63 6.0 12.0 0.00 0.00 0.00 76 1014.1
20240522231545 80 37 9.0 14.0 0.00 0.00 0.00 74 1014.2
20240522230103 80 60 7.0 14.0 0.00 0.00 0.00 74 1014.1
20240522224556 80 53 8.0 15.0 0.00 0.00 0.00 73 1013.9
20240522223045 81 27 9.0 16.0 0.00 0.00 0.00 72 1013.9
20240522221543 81 339 10.0 17.0 0.00 0.00 0.00 73 1014.0
20240522220038 81 49 6.0 11.0 0.00 0.00 0.00 73 1013.8
20240522214543 81 34 6.0 14.0 0.00 0.00 0.00 73 1013.8
20240522213036 81 21 9.0 16.0 0.00 0.00 0.00 74 1013.9
20240522211538 81 49 8.0 16.0 0.00 0.00 0.00 74 1014.2
20240522210043 81 347 6.0 17.0 0.00 0.00 0.00 72 1014.1
20240522204535 82 13 9.0 16.0 0.00 0.00 0.00 70 1014.1
20240522203048 82 353 9.0 15.0 0.00 0.00 0.00 71 1014.2
20240522201535 82 352 4.0 14.0 0.00 0.00 0.00 73 1014.2
20240522200036 82 32 9.0 16.0 0.00 0.00 0.00 75 1014.3
20240522194531 82 52 10.0 17.0 0.00 0.00 0.00 73 1014.4
20240522193035 82 25 7.0 13.0 0.00 0.00 0.00 72 1014.7
20240522191534 82 34 5.0 14.0 0.00 0.00 0.00 73 1014.7
20240522190030 81 53 8.0 17.0 0.00 0.00 0.00 74 1014.9
20240522184529 82 18 8.0 14.0 0.00 0.00 0.00 71 1015.1
20240522183030 82 23 7.0 16.0 0.00 0.00 0.00 69 1015.1
20240522181534 82 82 7.0 15.0 0.00 0.00 0.00 68 1015.1